Location: Debolt
(55.2626°N, 118.0981°W)
Time: 12:50:57
(UTC+00:00)

MOZHAYETS 4 - Visible Passes

Search period start: 08 December 2023 00:00
Search period end: 18 December 2023 00:00
Orbit: 656 x 672 km, 98.3° (Epoch: 08 December)

Date Brightness Start Highest point End Pass type
(mag) Time Alt. Az. Time Alt. Az. Time Alt. Az.
08 Dec 9.9 01:36:03 10° N 01:39:39 23° NW 01:43:14 10° WSW visible
09 Dec 8.1 00:29:20 10° NNE 00:33:56 67° WNW 00:38:30 10° SSW visible
09 Dec 10.4 02:07:34 10° NNW 02:10:08 15° NW 02:12:40 10° W visible
10 Dec 9.0 01:00:22 10° N 01:04:39 39° WNW 01:08:56 10° SW visible
11 Dec 9.8 01:31:33 10° N 01:35:16 24° WNW 01:38:58 10° WSW visible
12 Dec 8.0 00:24:53 10° NNE 00:29:31 73° WNW 00:34:06 10° SSW visible
12 Dec 10.3 02:03:00 10° NNW 02:05:44 16° NW 02:08:29 10° W visible
13 Dec 8.9 00:55:53 10° N 01:00:15 42° WNW 01:04:35 10° SW visible
13 Dec 10.7 02:35:34 10° NW 02:36:07 10° NW 02:36:40 10° NW visible
14 Dec 9.7 01:27:01 10° N 01:30:51 26° WNW 01:34:40 10° WSW visible
15 Dec 7.9 00:20:25 10° NNE 00:25:03 80° WNW 00:29:39 10° SSW visible
15 Dec 10.3 01:58:25 10° NNW 02:01:21 17° NW 02:04:16 10° W visible
16 Dec 8.7 00:51:23 10° N 00:55:48 46° WNW 01:00:11 10° SW visible
16 Dec 10.6 02:30:31 10° NNW 02:31:44 11° NW 02:32:56 10° WNW visible
17 Dec 9.6 01:22:30 10° N 01:26:25 28° WNW 01:30:19 10° WSW visible
